Stündliche Wetter Warta

Heute, 22 Oktober, Donnerstag

Zeit Temperatur Niederschläge Wind Luftdruck Luftfeuchtigkeit
00:00 +10°C° 0 mm 5 m/S 748 mmHg 69%
01:00 +11°C° 0 mm 6 m/S 748 mmHg 69%
02:00 +12°C° 0 mm 5 m/S 748 mmHg 69%
03:00 +12°C° 0 mm 5 m/S 748 mmHg 69%
04:00 +12°C° 0 mm 5 m/S 748 mmHg 68%
05:00 +12°C° 0 mm 5 m/S 748 mmHg 68%
06:00 +12°C° 0 mm 5 m/S 748 mmHg 67%
07:00 +12°C° 0 mm 5 m/S 749 mmHg 67%
08:00 +13°C° 0 mm 6 m/S 749 mmHg 64%
09:00 +15°C° 0 mm 6 m/S 749 mmHg 61%
10:00 +16°C° 0 mm 6 m/S 750 mmHg 59%
11:00 +17°C° 0 mm 6 m/S 750 mmHg 58%
12:00 +19°C° 0 mm 5 m/S 750 mmHg 56%
13:00 +20°C° 0 mm 5 m/S 750 mmHg 55%
14:00 +19°C° 0 mm 5 m/S 750 mmHg 59%
15:00 +18°C° 0 mm 4 m/S 749 mmHg 63%
16:00 +18°C° 0 mm 3 m/S 749 mmHg 67%
17:00 +17°C° 0 mm 3 m/S 750 mmHg 69%
18:00 +15°C° 0 mm 4 m/S 750 mmHg 71%
19:00 +14°C° 0 mm 4 m/S 750 mmHg 74%
20:00 +14°C° 0 mm 4 m/S 750 mmHg 75%
21:00 +14°C° 0 mm 4 m/S 750 mmHg 76%
22:00 +13°C° 0 mm 4 m/S 750 mmHg 77%
23:00 +13°C° 0 mm 4 m/S 750 mmHg 77%

Morgen, 23 Oktober, Freitag

Zeit Temperatur Niederschläge Wind Luftdruck Luftfeuchtigkeit
00:00 +13°C° 0 mm 4 m/S 750 mmHg 77%
01:00 +13°C° 0 mm 4 m/S 749 mmHg 76%
02:00 +13°C° 0 mm 4 m/S 749 mmHg 75%
03:00 +13°C° 0 mm 4 m/S 749 mmHg 75%
04:00 +13°C° 0 mm 5 m/S 748 mmHg 74%
05:00 +13°C° 0 mm 4 m/S 748 mmHg 74%
06:00 +13°C° 0 mm 4 m/S 748 mmHg 75%
07:00 +13°C° 0 mm 4 m/S 748 mmHg 76%
08:00 +13°C° 0 mm 4 m/S 748 mmHg 74%
09:00 +14°C° 0 mm 4 m/S 748 mmHg 72%
10:00 +15°C° 0 mm 4 m/S 748 mmHg 70%
11:00 +17°C° 0 mm 3 m/S 748 mmHg 68%
12:00 +17°C° 0 mm 3 m/S 748 mmHg 67%
13:00 +18°C° 0 mm 3 m/S 748 mmHg 65%
14:00 +18°C° 0 mm 2 m/S 747 mmHg 68%
15:00 +17°C° 0 mm 2 m/S 747 mmHg 72%
16:00 +18°C° 0 mm 1 m/S 747 mmHg 75%
17:00 +16°C° 0 mm 1 m/S 747 mmHg 76%
18:00 +16°C° 0 mm 1 m/S 747 mmHg 78%
19:00 +16°C° 0 mm 1 m/S 747 mmHg 79%
20:00 +15°C° 0 mm 1 m/S 747 mmHg 80%
21:00 +15°C° 0 mm 2 m/S 747 mmHg 80%
22:00 +15°C° 0 mm 2 m/S 747 mmHg 81%
23:00 +15°C° 0.5 mm 2 m/S 746 mmHg 83%

übermorgen, 24 Oktober, Samstag

Zeit Temperatur Niederschläge Wind Luftdruck Luftfeuchtigkeit
00:00 +14°C° 0.5 mm 3 m/S 746 mmHg 86%
01:00 +13°C° 0.5 mm 4 m/S 746 mmHg 89%
02:00 +13°C° 1.2 mm 4 m/S 746 mmHg 89%
03:00 +13°C° 1.2 mm 4 m/S 746 mmHg 90%
04:00 +13°C° 1.2 mm 5 m/S 745 mmHg 90%
05:00 +13°C° 0.3 mm 5 m/S 746 mmHg 89%
06:00 +13°C° 0.3 mm 5 m/S 746 mmHg 89%
07:00 +13°C° 0.3 mm 5 m/S 746 mmHg 88%
08:00 +13°C° 0 mm 4 m/S 747 mmHg 85%
09:00 +13°C° 0 mm 4 m/S 747 mmHg 82%
10:00 +14°C° 0 mm 4 m/S 748 mmHg 78%
11:00 +14°C° 0.1 mm 5 m/S 748 mmHg 77%
12:00 +15°C° 0.1 mm 5 m/S 748 mmHg 76%
13:00 +15°C° 0.1 mm 6 m/S 749 mmHg 74%
14:00 +15°C° 0 mm 5 m/S 749 mmHg 76%
15:00 +14°C° 0 mm 4 m/S 749 mmHg 77%
16:00 +14°C° 0 mm 4 m/S 749 mmHg 78%
17:00 +13°C° 0 mm 3 m/S 750 mmHg 81%
18:00 +12°C° 0 mm 3 m/S 750 mmHg 85%
19:00 +13°C° 0 mm 2 m/S 751 mmHg 88%
20:00 +12°C° 0 mm 2 m/S 751 mmHg 89%
21:00 +12°C° 0 mm 2 m/S 751 mmHg 89%
22:00 +12°C° 0 mm 2 m/S 752 mmHg 90%
23:00 +10°C° 0 mm 2 m/S 751 mmHg 90%

, 25 Oktober, Sonntag

Zeit Temperatur Niederschläge Wind Luftdruck Luftfeuchtigkeit
00:00 +10°C° 0 mm 3 m/S 751 mmHg 90%
01:00 +10°C° 0 mm 3 m/S 751 mmHg 90%
02:00 +10°C° 0 mm 3 m/S 751 mmHg 90%
03:00 +10°C° 0 mm 3 m/S 751 mmHg 91%
04:00 +9°C° 0 mm 3 m/S 751 mmHg 91%
05:00 +9°C° 0 mm 2 m/S 751 mmHg 91%
06:00 +9°C° 0 mm 2 m/S 751 mmHg 91%
07:00 +9°C° 0 mm 2 m/S 751 mmHg 91%
08:00 +10°C° 0 mm 3 m/S 751 mmHg 86%
09:00 +12°C° 0 mm 3 m/S 751 mmHg 80%
10:00 +13°C° 0 mm 3 m/S 751 mmHg 74%
11:00 +14°C° 0 mm 3 m/S 751 mmHg 70%
12:00 +16°C° 0 mm 3 m/S 751 mmHg 66%
13:00 +17°C° 0 mm 3 m/S 750 mmHg 62%
14:00 +16°C° 0 mm 3 m/S 750 mmHg 66%
15:00 +16°C° 0 mm 2 m/S 750 mmHg 69%
16:00 +15°C° 0 mm 2 m/S 749 mmHg 72%
17:00 +13°C° 0 mm 3 m/S 749 mmHg 74%
18:00 +13°C° 0 mm 3 m/S 749 mmHg 77%
19:00 +12°C° 0 mm 3 m/S 749 mmHg 79%
20:00 +12°C° 0 mm 3 m/S 749 mmHg 81%
21:00 +11°C° 0 mm 4 m/S 749 mmHg 82%
22:00 +11°C° 0 mm 4 m/S 749 mmHg 83%
23:00 +11°C° 0 mm 4 m/S 749 mmHg 85%

25 Oktober, Sonntag

Zeit Temperatur Niederschläge Wind Luftdruck Luftfeuchtigkeit
00:00 +10°C° 0 mm 3 m/S 751 mmHg 90%
01:00 +10°C° 0 mm 3 m/S 751 mmHg 90%
02:00 +10°C° 0 mm 3 m/S 751 mmHg 90%
03:00 +10°C° 0 mm 3 m/S 751 mmHg 91%
04:00 +9°C° 0 mm 3 m/S 751 mmHg 91%
05:00 +9°C° 0 mm 2 m/S 751 mmHg 91%
06:00 +9°C° 0 mm 2 m/S 751 mmHg 91%
07:00 +9°C° 0 mm 2 m/S 751 mmHg 91%
08:00 +10°C° 0 mm 3 m/S 751 mmHg 86%
09:00 +12°C° 0 mm 3 m/S 751 mmHg 80%
10:00 +13°C° 0 mm 3 m/S 751 mmHg 74%
11:00 +14°C° 0 mm 3 m/S 751 mmHg 70%
12:00 +16°C° 0 mm 3 m/S 751 mmHg 66%
13:00 +17°C° 0 mm 3 m/S 750 mmHg 62%
14:00 +16°C° 0 mm 3 m/S 750 mmHg 66%
15:00 +16°C° 0 mm 2 m/S 750 mmHg 69%
16:00 +15°C° 0 mm 2 m/S 749 mmHg 72%
17:00 +13°C° 0 mm 3 m/S 749 mmHg 74%
18:00 +13°C° 0 mm 3 m/S 749 mmHg 77%
19:00 +12°C° 0 mm 3 m/S 749 mmHg 79%
20:00 +12°C° 0 mm 3 m/S 749 mmHg 81%
21:00 +11°C° 0 mm 4 m/S 749 mmHg 82%
22:00 +11°C° 0 mm 4 m/S 749 mmHg 83%
23:00 +11°C° 0 mm 4 m/S 749 mmHg 85%

26 Oktober, Montag

Zeit Temperatur Niederschläge Wind Luftdruck Luftfeuchtigkeit
00:00 +10°C° 0 mm 3 m/S 748 mmHg 86%
01:00 +10°C° 0 mm 3 m/S 748 mmHg 88%
02:00 +10°C° 0 mm 3 m/S 748 mmHg 89%
03:00 +9°C° 0 mm 3 m/S 747 mmHg 90%
04:00 +9°C° 0 mm 3 m/S 747 mmHg 91%
05:00 +9°C° 0 mm 3 m/S 747 mmHg 91%
06:00 +9°C° 0 mm 3 m/S 747 mmHg 91%
07:00 +9°C° 0 mm 3 m/S 747 mmHg 92%
08:00 +10°C° 0 mm 3 m/S 746 mmHg 85%
09:00 +11°C° 0 mm 3 m/S 746 mmHg 79%
10:00 +13°C° 0 mm 4 m/S 746 mmHg 73%
11:00 +13°C° 0 mm 4 m/S 745 mmHg 71%
12:00 +14°C° 0 mm 4 m/S 745 mmHg 68%
13:00 +16°C° 0 mm 3 m/S 745 mmHg 66%
14:00 +14°C° 0 mm 3 m/S 745 mmHg 69%
15:00 +14°C° 0 mm 3 m/S 744 mmHg 73%
16:00 +14°C° 0 mm 3 m/S 744 mmHg 76%
17:00 +13°C° 0 mm 3 m/S 744 mmHg 79%
18:00 +13°C° 0 mm 3 m/S 744 mmHg 82%
19:00 +12°C° 0 mm 3 m/S 744 mmHg 85%
20:00 +12°C° 0 mm 3 m/S 744 mmHg 84%
21:00 +13°C° 0 mm 2 m/S 744 mmHg 84%
22:00 +13°C° 0 mm 2 m/S 744 mmHg 84%
23:00 +12°C° 0 mm 3 m/S 744 mmHg 83%

27 Oktober, Dienstag

Zeit Temperatur Niederschläge Wind Luftdruck Luftfeuchtigkeit
00:00 +12°C° 0 mm 3 m/S 744 mmHg 82%
01:00 +12°C° 0 mm 3 m/S 744 mmHg 81%
02:00 +12°C° 0.1 mm 3 m/S 744 mmHg 80%
03:00 +12°C° 0.1 mm 3 m/S 744 mmHg 79%
04:00 +12°C° 0.1 mm 3 m/S 744 mmHg 77%
05:00 +12°C° 0 mm 3 m/S 745 mmHg 80%
06:00 +11°C° 0 mm 3 m/S 745 mmHg 82%
07:00 +11°C° 0 mm 3 m/S 745 mmHg 85%
08:00 +12°C° 0 mm 3 m/S 746 mmHg 81%
09:00 +13°C° 0 mm 3 m/S 746 mmHg 78%
10:00 +14°C° 0 mm 4 m/S 746 mmHg 75%
11:00 +16°C° 0 mm 3 m/S 746 mmHg 71%
12:00 +17°C° 0 mm 3 m/S 747 mmHg 67%
13:00 +18°C° 0 mm 3 m/S 747 mmHg 63%
14:00 +17°C° 0 mm 2 m/S 747 mmHg 66%
15:00 +17°C° 0 mm 2 m/S 747 mmHg 69%
16:00 +16°C° 0 mm 1 m/S 747 mmHg 72%
17:00 +15°C° 0 mm 1 m/S 748 mmHg 74%
18:00 +14°C° 0 mm 0 m/S 748 mmHg 77%
19:00 +13°C° 0 mm 0 m/S 748 mmHg 80%
20:00 +13°C° 0 mm 0 m/S 749 mmHg 81%
21:00 +12°C° 0 mm 0 m/S 749 mmHg 83%
22:00 +12°C° 0 mm 0 m/S 749 mmHg 84%
23:00 +12°C° 0 mm 0 m/S 749 mmHg 85%
Mehr zeigen

Wir brauchen deine Erlaubnis

Meteoprog und unser Service Anbieter werden persönliche Daten aufbewahren, so wie Cookies, Geräte Bezeichnung oder ähnliche Technologien von deinem Gerät und Prozess, so wie Persönliche Daten Inhalte und Werbungen, genauso wie social Media und den Verkehr zu analysieren.

  • Aufbewahrung und/oder Zugang zu deiner Geräte Informationen.

    Cookies, Geräte Bezeichnung oder andere Informationen, können aufbewahrt oder Zugang zu deinem Gerät erhalten, für den Grund, der oben angegeben wird.

  • Personalisierte Werbung und Inhalte, Messungen, Einblick in das Publikum und Produkt Entwicklung.

    Werbungen und Inhalte können personalisiert werden, basierend auf ein Profil. Mehr Daten können besser personalisierte Werbungen und Inhalte hinzufügen. Werbung und Inhalte können gezeigt und gemessen werden. Einblicke über das Publikum, welche die Werbung gesehen haben und den Inhalt, können abgeleitet werden. So wie Daten können genutzt werden, um es zu verbessern oder die Benutzer Erfahrung zu verbessern das System und die Software.

Wenn du “Ich stimme zu” klickst, erlaubst du uns, die Cookies zu benutzen die Geräte Bezeichnung, den Web oder ähnliche Technologien zu benutzen. Deine Settings, können in deinem Gerät bei deinem Browser geändert werden.

Für den bestimmten Zweck, berechtigten Interessen beruhen darauf, mehr als auf den Inhalt. Du kannst mehr darüber in unseren Privaten und Cookie Politik lesen.